Location: Boiro
(42.6475°N, 8.8834°W)
Time: 18:14:29
(UTC+02:00)

AO-73 - Pass Details

Date: 03 May 2024
Orbit: 559 x 625 km, 97.7° (Epoch: 27 May)

Event Time Altitude Azimuth Distance (km) Brightness Sun altitude
Rises 05:51:59 0° 11° (N) 2,923 ? -15.7°
Reaches altitude 10° 05:54:12 10° 11° (N) 2,010 ? -15.4°
Maximum altitude 05:58:35 82° 285° (WNW) 635 ? -14.8°
Enters shadow 06:01:47 18° 198° (SSW) 1,525 ? -14.3°
